{"data":{"norad_id":63469,"epoch":"2026-05-25T03:54:13.925952Z","epoch_age_seconds":61149,"freshness":"FRESH","line1":"1 63469U 25070K   26145.16266118  .00014070  00000+0  51980-3 0  9998","line2":"2 63469  42.9995 187.7770 0001485 347.6248  12.4567 15.27581486 64672","mean_motion":15.27581486,"eccentricity":0.0001485,"inclination_deg":42.9995,"raan_deg":187.777,"arg_perigee_deg":347.6248,"mean_anomaly_deg":12.4567,"bstar":0.0005198,"rev_number":6467,"period_min":94.266657012888,"perigee_km":482.02576095018,"apogee_km":484.06353189917,"semimajor_km":6861.1816464247,"source":"CELESTRAK","updated_at":"2026-05-25T13:38:20.006508Z"}}